Vertical_Velocity
1 -3 -5 5 7 9 1 -4 1 6 2 3 4 12 7 2 -0 3 5 4 4 5 4 1 2 2 -2 -1 -1 -1 2 1 -1 0 7 13 3 1 -1 2 4 -5 -5 2
0 -7 1 -2 -2 2 2 -1 3 2 -3 -1 -2 2 -2 -3 -0 4 1 0 2 3 3 4 1 -1 2 2 2 -0 -1 -7 -9 -5 -4 -7 -13 -3 -5 -6 -3 1 1 -1
-4 7 4 1 -2 -2 3 -1 1 4 2 1 2 3 -3 -3 -2 -3 -2 -1 2 3 2 2 1 -1 -3 -1 -2 -4 -4 -5 -7 -9 -7 -9 -8 -5 -3 -2 4 -1 -0 1
-9 6 1 2 1 1 -2 -1 -0 1 5 -1 0 -7 -1 1 2 -1 1 1 4 2 2 2 2 2 -1 -4 -4 -4 -1 -1 -4 -7 -6 -10 -17 -20 -11 -5 -1 -3 -4 -0
-2 -1 -1 3 -2 1 -4 -1 0 1 0 3 2 0 -7 1 -1 -1 -0 3 1 1 -0 0 -1 -0 -2 -4 -3 -3 -8 -6 -2 -6 -11 -10 -6 -8 -7 -12 -11 -4 -1 -3
-2 1 -2 -1 3 3 1 1 -0 2 2 3 -7 -5 -4 -2 0 1 3 -1 -1 3 1 -0 -1 -2 -3 -1 2 -2 -3 -5 -7 -3 -3 -5 -9 -9 -6 -4 -8 -8 -7 -1
2 -3 2 2 3 3 3 1 -2 -2 2 -7 2 11 -10 -0 -0 4 3 2 1 2 2 2 1 3 1 -2 -6 -9 -6 -2 -4 -7 -5 -5 -7 -8 -8 -4 -4 -4 -1 -2
-4 2 -5 -3 -7 -3 -1 2 -10 -4 -2 -3 1 -4 -10 -1 0 -1 1 4 3 0 -1 -2 -2 -4 -5 -5 -5 -6 -6 -5 -5 -6 -3 -3 -4 -2 -6 -7 -8 -7 -11 -6
-2 -0 -2 2 6 5 -0 2 8 4 2 1 -2 -3 -2 -1 -2 1 -1 3 -0 -2 -1 -4 -2 -2 -4 -4 -3 -4 -5 -5 -6 -9 -4 0 -3 -5 -7 -5 -9 -7 -6 -6
2 -1 1 2 6 7 2 1 -2 2 -1 0 -2 -3 -7 -6 -0 -1 -3 0 1 -0 -3 -5 -4 -5 -3 -2 -6 -4 -2 -2 -7 -7 -4 -3 -7 -5 -5 -5 -2 -8 -6 -2
6 3 0 4 -1 -3 -5 -1 -1 1 1 -4 -1 -9 -3 1 -2 -3 -0 1 -1 -1 -2 -2 -3 -2 -6 -5 -6 -9 -4 -3 -3 -3 -7 -8 -5 -4 -5 -4 -4 -6 -8 -6
7 8 -2 -10 -2 2 1 3 4 -0 -4 3 2 -33 -6 -3 -3 -0 -1 -2 -3 -3 -1 -3 -5 -6 -2 -6 -2 -10 -5 -7 -7 -7 -5 -5 -5 -5 -3 -3 -4 -5 -6 -5
-6 -2 2 3 6 2 -6 0 5 4 7 -4 -1 -12 -7 -5 -5 -2 -4 -2 -1 -3 -2 -3 -2 -2 -3 -2 -4 -4 -1 -2 -4 -4 -5 -5 -5 -5 -2 -3 -3 -2 -2 -1
20 8 -12 -20 -6 -2 -6 -1 0 11 6 -6 -14 -4 -8 -5 -1 -1 1 3 -0 2 -1 -1 0 -3 -2 -3 -1 -1 -1 -2 -4 -5 -3 -2 -1 -1 -1 -1 -3 -1 0 -3
15 -7 6 3 0 -0 -3 2 0 -6 -1 -3 -6 -10 -1 1 1 6 6 -1 -1 -1 -4 -1 -1 1 -2 -0 0 -0 -4 -5 -5 -4 -3 -4 -2 -3 -4 -2 -1 -1 0 -1
9 -4 4 1 2 -0 -3 9 -2 5 3 1 2 -9 0 1 3 0 6 1 -0 -3 -1 -1 2 1 -0 0 -3 -3 -5 -3 -3 -2 -3 -0 -3 -3 -3 -2 0 -2 0 -0
-4 10 1 -3 2 1 5 -8 4 5 8 4 -4 -11 8 -1 1 4 -0 1 -1 -1 -1 -1 -0 -0 -2 -5 -3 -2 -2 -3 -3 -2 -2 -1 -2 -2 -2 -2 1 2 2 1
8 7 4 1 -0 1 4 1 -2 -6 -4 1 5 1 4 2 5 1 -1 -3 2 0 1 -0 1 -1 -3 -1 -2 -2 -1 -1 -3 -3 -3 -3 -1 -1 -1 -1 -1 1 2 2
6 9 -1 3 -1 -8 9 -2 -6 -7 -3 -2 -5 -2 -2 1 4 -2 2 1 0 -0 1 2 1 -1 -1 0 -1 -2 -3 -3 -3 -3 -2 -1 1 -0 -0 -1 -1 0 1 2
-1 7 7 -4 -0 -3 -2 -7 2 2 -3 -5 -1 -2 -1 1 -3 3 -2 1 1 2 0 -1 -2 -2 -0 -1 -0 -1 -2 -2 -3 -2 -1 -2 -2 -1 -1 -2 -0 -1 -1 -1
3 10 -5 2 -3 -4 -3 -8 1 11 -14 3 3 1 -2 1 -1 -2 -2 1 -1 -2 -2 -2 -1 -2 0 1 -2 -2 -2 -3 -3 -1 -1 -2 -3 -1 -2 -1 -1 -1 -1 -1
-7 -6 -4 6 3 -11 -3 -3 -2 -1 2 1 -3 -4 -5 -3 -4 -0 0 -2 -2 -1 -2 -1 -2 -1 -0 1 1 -1 -3 -3 -3 -3 -2 -2 -2 -2 -1 -2 0 -1 -0 -0
-3 -6 -13 -8 -4 -4 -5 1 5 1 -1 -3 -0 2 2 1 2 -0 0 1 -0 -2 -2 -0 -1 -1 -1 1 0 -1 -2 -2 -2 -2 -1 -1 -1 -2 -2 -3 -2 2 1 1
2 1 0 0 -2 -2 2 1 0 -2 -1 -2 -2 -2 -0 -0 -2 -1 -1 -2 -1 0 -0 -1 -1 -1 1 0 -1 -2 -2 -2 -3 -2 -1 -2 -2 -1 -2 -2 -2 -2 -1 -0
-4 2 -2 -3 -1 -1 -4 -2 1 2 -2 -1 0 -0 -0 -2 -1 -1 -1 -1 -1 -1 1 -0 -1 0 2 0 -2 -2 -0 1 0 -0 -1 -1 -2 -2 -1 -3 -4 -1 -3 -3
-1 -6 -8 -13 3 -2 2 -1 -1 0 2 1 -1 -1 -1 -2 -2 -2 -2 -1 -1 -1 -1 -2 0 1 -1 -3 -2 -2 -2 -1 -0 0 0 -2 -1 -0 -1 -2 2 -3 -2 -2
Height
3116 3117 3119 3122 3123 3123 3124 3126 3128 3127 3126 3128 3131 3132 3129 3129 3127 3125 3124 3123 3121 3120 3120 3119 3119 3117 3117 3115 3112 3109 3106 3103 3100 3096 3093 3092 3091 3089 3086 3084 3079 3076 3073 3071
3117 3113 3116 3119 3122 3121 3122 3124 3125 3125 3126 3127 3127 3129 3126 3125 3122 3120 3118 3116 3116 3116 3115 3114 3113 3113 3111 3108 3105 3103 3099 3096 3092 3088 3084 3080 3077 3076 3073 3071 3069 3065 3063 3060
3115 3115 3113 3114 3118 3120 3120 3121 3122 3124 3124 3123 3123 3122 3119 3118 3117 3115 3114 3112 3111 3111 3110 3110 3108 3107 3106 3102 3099 3096 3092 3089 3086 3082 3079 3075 3070 3066 3064 3062 3059 3055 3051 3049
3110 3112 3113 3112 3112 3115 3117 3120 3121 3120 3121 3120 3120 3115 3111 3109 3109 3109 3107 3107 3106 3105 3106 3105 3103 3101 3099 3096 3093 3089 3085 3081 3076 3071 3067 3062 3057 3053 3049 3045 3044 3042 3040 3036
3105 3106 3109 3109 3108 3110 3113 3117 3119 3118 3116 3115 3114 3118 3100 3102 3100 3101 3101 3101 3101 3102 3101 3100 3098 3096 3094 3091 3089 3085 3081 3076 3070 3065 3059 3053 3049 3045 3040 3037 3032 3028 3026 3024
3100 3102 3103 3106 3107 3107 3108 3112 3115 3116 3115 3109 3105 3110 3092 3094 3094 3094 3094 3096 3098 3099 3098 3097 3095 3093 3090 3086 3082 3077 3073 3067 3061 3054 3049 3044 3039 3035 3031 3027 3022 3018 3012 3008
3094 3095 3099 3102 3104 3104 3104 3107 3111 3113 3113 3105 3099 3100 3089 3089 3091 3093 3093 3093 3093 3095 3095 3095 3093 3090 3086 3081 3075 3070 3064 3058 3053 3048 3043 3038 3033 3027 3020 3014 3007 3002 2996 2992
3086 3089 3090 3093 3095 3097 3098 3101 3103 3104 3105 3101 3100 3092 3086 3086 3087 3089 3089 3089 3090 3091 3091 3089 3086 3082 3077 3072 3067 3062 3058 3052 3046 3041 3037 3031 3025 3019 3013 3007 3000 2994 2986 2979
3081 3083 3082 3085 3088 3093 3092 3093 3096 3097 3099 3098 3092 3087 3084 3082 3083 3082 3084 3085 3086 3087 3085 3082 3078 3074 3069 3064 3059 3053 3049 3044 3039 3033 3029 3023 3017 3011 3006 3000 2993 2985 2976 2967
3076 3080 3079 3082 3084 3085 3085 3088 3091 3094 3096 3094 3085 3083 3079 3078 3079 3079 3080 3081 3082 3081 3079 3076 3073 3068 3063 3057 3053 3048 3044 3038 3033 3028 3024 3018 3013 3007 3001 2993 2985 2978 2968 2959
3073 3075 3076 3077 3076 3076 3081 3081 3084 3086 3085 3084 3084 3075 3074 3075 3075 3076 3077 3078 3078 3076 3075 3072 3069 3065 3060 3055 3050 3045 3040 3033 3028 3023 3019 3013 3007 3000 2993 2986 2978 2969 2960 2951
3065 3069 3070 3071 3072 3074 3076 3077 3077 3077 3078 3076 3075 3069 3070 3072 3073 3072 3073 3073 3073 3072 3071 3069 3066 3061 3057 3053 3048 3043 3038 3031 3024 3017 3011 3006 2999 2994 2988 2980 2971 2963 2954 2945
3058 3061 3065 3067 3070 3068 3067 3069 3071 3072 3071 3069 3073 3065 3066 3068 3068 3068 3069 3068 3068 3068 3066 3063 3059 3055 3050 3046 3042 3038 3032 3025 3019 3012 3005 3000 2994 2988 2980 2973 2966 2958 2951 2942
3054 3052 3053 3053 3054 3056 3059 3059 3062 3066 3066 3064 3059 3061 3063 3064 3063 3063 3064 3063 3063 3062 3061 3059 3054 3049 3045 3041 3036 3032 3027 3020 3014 3008 3002 2996 2989 2981 2974 2966 2960 2953 2946 2939
3047 3046 3048 3050 3051 3053 3054 3053 3054 3056 3057 3059 3055 3056 3059 3059 3060 3060 3059 3059 3059 3058 3057 3054 3050 3045 3041 3037 3034 3029 3022 3015 3009 3003 2996 2989 2982 2975 2968 2961 2955 2948 2942 2936
3041 3040 3043 3046 3047 3049 3048 3047 3048 3049 3051 3052 3052 3049 3053 3054 3054 3054 3054 3053 3054 3052 3051 3048 3044 3041 3037 3032 3028 3022 3015 3009 3004 2997 2991 2983 2977 2970 2963 2956 2949 2944 2938 2932
3038 3036 3038 3040 3043 3044 3041 3040 3042 3044 3045 3046 3044 3045 3046 3047 3048 3048 3048 3049 3049 3047 3044 3041 3038 3034 3030 3026 3021 3016 3009 3004 2999 2992 2986 2978 2972 2965 2958 2951 2944 2939 2934 2928
3032 3032 3035 3037 3040 3041 3034 3032 3036 3037 3037 3038 3038 3039 3040 3041 3042 3041 3043 3044 3043 3041 3037 3035 3032 3028 3025 3021 3016 3010 3005 2999 2994 2987 2981 2974 2967 2961 2954 2948 2940 2934 2930 2925
3023 3027 3030 3033 3033 3031 3027 3028 3031 3030 3030 3031 3033 3034 3035 3036 3037 3039 3038 3038 3037 3035 3032 3030 3026 3023 3020 3016 3011 3005 3000 2994 2989 2982 2976 2969 2963 2957 2951 2944 2938 2931 2926 2921
3017 3022 3024 3028 3028 3026 3021 3023 3025 3027 3026 3027 3028 3030 3031 3033 3033 3035 3034 3033 3031 3029 3027 3024 3021 3019 3015 3010 3005 3001 2995 2989 2983 2977 2971 2965 2959 2952 2947 2941 2935 2929 2923 2917
3012 3013 3015 3018 3020 3017 3018 3021 3022 3025 3026 3024 3025 3026 3028 3029 3030 3030 3030 3028 3027 3025 3022 3020 3017 3014 3010 3005 3000 2996 2990 2984 2979 2973 2966 2960 2954 2949 2943 2938 2931 2926 2921 2916
3000 3005 3010 3015 3016 3015 3014 3016 3018 3020 3020 3021 3021 3023 3024 3025 3026 3026 3025 3023 3022 3020 3018 3015 3011 3008 3004 3000 2995 2990 2985 2980 2973 2968 2962 2955 2950 2945 2938 2934 2929 2923 2917 2912
2999 3001 3002 3007 3007 3008 3010 3012 3013 3015 3017 3019 3020 3022 3023 3022 3021 3020 3019 3018 3017 3016 3014 3010 3007 3003 2999 2994 2990 2985 2980 2974 2969 2963 2957 2951 2946 2940 2935 2930 2925 2920 2915 2909
2993 2995 2998 3002 3003 3005 3006 3008 3010 3012 3015 3016 3018 3018 3018 3018 3018 3017 3016 3015 3013 3011 3008 3006 3002 2998 2994 2990 2985 2980 2974 2969 2964 2958 2952 2946 2940 2936 2930 2924 2919 2914 2910 2905
2988 2992 2994 2996 2999 3000 3003 3004 3007 3010 3012 3013 3014 3014 3014 3013 3013 3012 3011 3010 3009 3007 3004 3001 2997 2993 2989 2984 2979 2974 2968 2963 2958 2953 2947 2941 2935 2930 2925 2919 2913 2908 2904 2899
2985 2987 2990 2993 2996 2998 3000 3001 3004 3007 3008 3009 3009 3009 3009 3009 3009 3008 3007 3006 3005 3003 3000 2996 2992 2988 2984 2979 2974 2968 2963 2957 2952 2947 2941 2936 2930 2925 2919 2914 2910 2902 2897 2894